Left ArrowRight Arrow

39.71368, -82.59933

Hourly Observations for June 24, 2024

Temp ( °F °C ) Dew Point ( °F °C ) Humidity (%) Winds ( mph kmh ) Pressure ( in mb ) Visibility ( mi km ) Precip ( " mm )
12:53 am 00:53 Mostly Cloudy 73 22.8 64 17.8 73 73 WNW 6 9 29.80 1009 10 16 0.00 0.00
1:53 am 01:53 Partly Cloudy 71 21.7 64 17.8 79 79 NNW 5 7 29.81 1010 10 16 0.00 0.00
2:53 am 02:53 Clear 68 20 63 17.2 84 84 NW 5 7 29.82 1010 10 16 0.00 0.00
3:53 am 03:53 Mostly Clear 68 20 63 17.2 84 84 NW 3 6 29.83 1010 10 16 0.00 0.00
4:53 am 04:53 Mostly Cloudy 68 20 63 17.2 84 84 NNW 6 9 29.85 1011 10 16 0.00 0.00
5:53 am 05:53 Clear 65 18.3 62 16.7 90 90 WSW 3 6 29.86 1011 10 16 0.00 0.00
6:53 am 06:53 Sunny 65 18.3 63 17.2 93 93 Calm 29.89 1012 10 16 0.00 0.00
7:53 am 07:53 Sunny 69 20.6 63 17.2 81 81 N 8 13 29.92 1013 10 16 0.00 0.00
8:53 am 08:53 Sunny 72 22.2 64 17.8 76 76 N 6 9 29.93 1014 10 16 0.00 0.00
9:53 am 09:53 Sunny 75 23.9 62 16.7 64 64 NNE 7 11 29.94 1014 10 16 0.00 0.00
10:53 am 10:53 Sunny 77 25 62 16.7 60 60 VRB 7 11 29.96 1015 10 16 0.00 0.00
11:53 am 11:53 Mostly Cloudy 79 26.1 62 16.7 56 56 VRB 7 11 29.96 1015 10 16 0.00 0.00
12:53 pm 12:53 Mostly Sunny 80 26.7 61 16.1 52 52 NNW 7 11 29.97 1015 10 16 0.00 0.00
1:53 pm 13:53 Mostly Cloudy 79 26.1 60 15.6 52 52 VRB 5 7 29.97 1015 10 16 0.00 0.00
2:53 pm 14:53 Partly Cloudy 82 27.8 60 15.6 47 47 VRB 5 7 29.96 1015 10 16 0.00 0.00
3:53 pm 15:53 Mostly Sunny 82 27.8 60 15.6 47 47 Calm 29.96 1015 10 16 0.00 0.00
4:53 pm 16:53 Mostly Sunny 83 28.3 61 16.1 48 48 VRB 5 7 29.95 1014 10 16 0.00 0.00
5:53 pm 17:53 Sunny 80 26.7 61 16.1 52 52 W 5 7 29.95 1014 10 16 0.00 0.00
6:53 pm 18:53 Sunny 82 27.8 61 16.1 49 49 WNW 3 6 29.94 1014 10 16 0.00 0.00
7:53 pm 19:53 Sunny 80 26.7 68 20 67 67 Calm 29.94 1014 10 16 0.00 0.00
8:53 pm 20:53 Sunny 74 23.3 67 19.4 79 79 ENE 3 6 29.94 1014 10 16 0.00 0.00
9:53 pm 21:53 Clear 69 20.6 63 17.2 81 81 ESE 3 6 29.95 1014 10 16 0.00 0.00
10:53 pm 22:53 Clear 67 19.4 64 17.8 90 90 Calm 29.97 1015 10 16 0.00 0.00
11:53 pm 23:53 Clear 65 18.3 63 17.2 93 93 Calm 29.97 1015 10 16 0.00 0.00

Powered by Vaisala Xweather